Weather History for Kansas City International, MO

Change the Weather History Date:

Friday, January 11, 2013

  Actual Average Record
Temperature  
Mean Temperature 49 °F 28 °F  
Max Temperature 59 °F 38 °F 65 °F (1960)
Min Temperature 39 °F 19 °F -16 °F (1918)
Degree Days  
Heating Degree Days 16 36  
Month to date heating degree days 396  
Since 1 July heating degree days 2438  
Cooling Degree Days 0 0  
Month to date cooling degree days 0  
Year to date cooling degree days 0  
Moisture  
Dew Point 44 °F    
Average Humidity 70    
Maximum Humidity 97    
Minimum Humidity 27    
Precipitation  
Precipitation 0.01 in 0.03 in 0.68 in (1949)
Month to date precipitation 0.35  
Year to date precipitation 0.35  
Snow  
Snow 0.00 in 0.10 in 3.60 in (1963)
Month to date snowfall 1.5  
Since 1 July snowfall 7.7  
Snow Depth -    
Sea Level Pressure  
Sea Level Pressure 29.64 in    
Wind  
Wind Speed 15 mph (SSW)    
Max Wind Speed 25 mph    
Max Gust Speed 37 mph    
Visibility 8 miles    
Events Fog    
T = Trace of Precipitation, MM = Missing Value Source: NWS Daily Summary

Daily Weather History Graph

Daily Weather History Graph

Search for Another Location

Airport:

Trip Planner

Search our weather history database for the weather conditions in past years. The results will help you decide how hot, cold, wet, or windy it might be!

Date:

Astronomy

Jan. 11, 2013 Rise Set
Actual Time 7:38 AM CST 5:16 PM CST
Civil Twilight 7:08 AM CST 5:45 PM CST
Nautical Twilight 6:35 AM CST 6:18 PM CST
Astronomical Twilight 6:03 AM CST 6:51 PM CST
Moon 7:12 AM CST (1/11) 5:34 PM CST (1/11)
Length of Visible Light 10h 37m
Length of Day
9h 37m
Waning Crescent, 0% of the Moon is Illuminated
Jan 11
Waning Crescent
Jan 11
New
Jan 18
First Quarter
Jan 26
Full
Feb 3
Last Quarter

Hourly Weather History & Observations

Time (CST) Temp. Dew Point Humidity Pressure Visibility Wind Dir Wind Speed Gust Speed Precip Events Conditions
12:29 AM 48.2 °F 46.4 °F 93% 29.72 in 0.2 mi SSW 9.2 mph - N/A Fog Fog
12:53 AM 48.9 °F 48.0 °F 97% 29.74 in 0.2 mi SSW 11.5 mph - 0.00 in   Overcast
1:53 AM 50.0 °F 48.0 °F 93% 29.74 in 0.2 mi SSW 8.1 mph - 0.01 in   Overcast
2:53 AM 50.0 °F 48.0 °F 93% 29.72 in 0.2 mi SSW 10.4 mph - N/A   Overcast
3:02 AM 50.0 °F 48.2 °F 94% 29.72 in 7.0 mi SSW 10.4 mph - N/A   Overcast
3:53 AM 50.0 °F 48.0 °F 93% 29.71 in 8.0 mi SSW 12.7 mph 21.9 mph N/A   Overcast
4:53 AM 50.0 °F 46.9 °F 89% 29.70 in 9.0 mi SSW 13.8 mph - N/A   Overcast
5:53 AM 50.0 °F 46.0 °F 86% 29.69 in 10.0 mi South 12.7 mph - N/A   Overcast
6:53 AM 50.0 °F 46.0 °F 86% 29.68 in 10.0 mi South 18.4 mph 24.2 mph N/A   Overcast
7:53 AM 50.0 °F 46.0 °F 86% 29.66 in 10.0 mi South 15.0 mph 24.2 mph N/A   Overcast
8:53 AM 50.0 °F 45.0 °F 83% 29.66 in 10.0 mi South 19.6 mph 29.9 mph N/A   Mostly Cloudy
9:53 AM 51.1 °F 44.1 °F 77% 29.65 in 10.0 mi South 23.0 mph 32.2 mph N/A   Overcast
10:53 AM 53.1 °F 44.1 °F 71% 29.61 in 10.0 mi South 19.6 mph 29.9 mph N/A   Mostly Cloudy
11:53 AM 54.0 °F 43.0 °F 66% 29.59 in 10.0 mi SSW 25.3 mph 35.7 mph N/A   Mostly Cloudy
12:53 PM 57.0 °F 44.1 °F 62% 29.57 in 10.0 mi South 21.9 mph 26.5 mph N/A   Mostly Cloudy
1:53 PM 57.2 °F 42.8 °F 59% 29.57 in 10.0 mi SSW 19.6 mph 25.3 mph N/A   Mostly Cloudy
2:53 PM 57.0 °F 44.1 °F 62% 29.56 in 10.0 mi South 17.3 mph 25.3 mph N/A   Overcast
3:53 PM 57.0 °F 44.1 °F 62% 29.55 in 10.0 mi South 18.4 mph - N/A   Overcast
4:53 PM 57.9 °F 43.0 °F 58% 29.56 in 10.0 mi South 21.9 mph 31.1 mph N/A   Overcast
5:53 PM 57.0 °F 43.0 °F 59% 29.57 in 10.0 mi South 19.6 mph 26.5 mph N/A   Overcast
6:53 PM 57.9 °F 43.0 °F 58% 29.58 in 10.0 mi South 20.7 mph 28.8 mph N/A   Overcast
7:53 PM 57.9 °F 44.1 °F 60% 29.59 in 10.0 mi SSW 25.3 mph 36.8 mph N/A   Mostly Cloudy
8:53 PM 57.9 °F 44.1 °F 60% 29.60 in 10.0 mi South 18.4 mph - N/A   Mostly Cloudy
9:53 PM 55.9 °F 44.1 °F 64% 29.62 in 10.0 mi SSW 16.1 mph - N/A   Scattered Clouds
10:53 PM 57.0 °F 44.1 °F 62% 29.66 in 10.0 mi SW 16.1 mph - N/A   Scattered Clouds
11:53 PM 54.0 °F 30.0 °F 40% 29.71 in 10.0 mi West 12.7 mph 21.9 mph N/A   Clear